Home > Weather > Neu-Ulm > Past weeks

Flag for Germany Weather for the Past 2 Weeks in Neu-Ulm, Bavaria, Germany

Now
37 °F

Chilly.


Feels Like: 35 °F
Forecast: 40 / 67 °F
Wind: 3 mph from Northeast

Location: Laupheim Airport

Current Time: May 5, 2016 at 7:22:49 AM

Latest Report: May 5, 2016 at 6:20 AM


Visibility: N/A

Pressure: 30.27 "Hg

Humidity: 87%

Dew Point: 34 °F

Location of Neu-UlmLocation

Historic Weather in Neu-Ulm — Graph

°F

Neu-Ulm Temperature Yesterday

Maximum temperature yesterday: 55 °F (at 3:20 PM)
Minimum temperature yesterday: 39 °F (at 5:20 AM)
Average temperature yesterday: 48 °F

High & Low Weather Summary for the Past Weeks

 TemperatureHumidityPressure
High64 °F (Apr 21, 3:20 PM)100% (Apr 26, 7:20 PM)30.36 "Hg (Apr 26, 7:20 PM)
Low28 °F (Apr 28, 4:20 AM)33% (Apr 29, 7:20 PM)29.59 "Hg (Apr 26, 7:20 AM)
Average45 °F70%30.00 "Hg
* Reported Apr 20 5:20 AM — May 5 5:20 AM, Neu-Ulm, Weather by CustomWeather, © 2016

Note: Actual official high and low records may vary slightly from our data, if they occured in-between our weather recording intervals... More about our weather records

Advertising

Neu-Ulm Weather History for the Previous 24 Hours

Scroll right to see more
 ConditionsComfort  
Time TempWeatherWind HumidityBarometerVisibility
5:20 AM
Thu, May 5
37 °FChilly.9 mph81%30.27 "HgN/A
4:20 AM37 °FChilly.7 mph75%30.27 "HgN/A
3:20 AM37 °FChilly.6 mph75%30.27 "HgN/A
2:20 AM41 °FQuite cool.7 mph61%30.27 "HgN/A
1:20 AM41 °FQuite cool.6 mph57%30.27 "HgN/A
12:20 AM41 °FQuite cool.5 mph61%30.30 "HgN/A
11:20 PM
Wed, May 4
45 °FPassing clouds.5 mph49%30.30 "HgN/A
10:20 PM45 °FPassing clouds.3 mph53%30.30 "HgN/A
9:20 PM48 °FBroken clouds.5 mph50%30.30 "HgN/A
8:20 PM52 °FPartly sunny.7 mph41%30.27 "HgN/A
7:20 PM54 °FBroken clouds.6 mph38%30.27 "HgN/A
6:20 PM54 °FPartly sunny.7 mph38%30.27 "HgN/A
6:00 PM55 °FPartly sunny.5 mph33%30.27 "HgN/A
5:20 PM55 °FScattered clouds.7 mph33%30.27 "HgN/A
4:20 PM55 °FScattered clouds.6 mph33%30.27 "HgN/A
3:20 PM55 °FScattered clouds.6 mph36%30.27 "HgN/A
2:20 PM54 °FScattered clouds.9 mph38%30.30 "HgN/A
1:20 PM54 °FScattered clouds.5 mph44%30.30 "HgN/A
12:20 PM52 °FScattered clouds.9 mph47%30.33 "HgN/A
11:20 AM50 °FScattered clouds.5 mph50%30.33 "HgN/A
10:20 AM48 °FScattered clouds.6 mph62%30.33 "HgN/A
9:20 AM45 °FScattered clouds.3 mph81%30.33 "HgN/A
8:20 AM43 °FPassing clouds.2 mph81%30.33 "Hg6 mi
7:20 AM41 °FPassing clouds.2 mph87%30.33 "Hg5 mi
Weather by CustomWeather, © 2016

See weather overviewHow to use our weather pages